Location: Sibbertoft
(52.4361°N, 1.0300°W)
Time: 22:16:38
(UTC+01:00)

N. Korean satellite - Visible Passes

Search period start: 27 September 2020 00:00
Search period end: 07 October 2020 00:00
Orbit: 455 x 503 km, 97.2° (Epoch: 27 September)

Date Brightness Start Highest point End Pass type
(mag) Time Alt. Az. Time Alt. Az. Time Alt. Az.
27 Sep 10.2 05:28:43 10° ENE 05:30:02 12° E 05:31:20 10° ESE visible
29 Sep 8.9 06:08:28 10° NNE 06:11:42 29° E 06:14:52 10° SSE visible
30 Sep 9.8 05:43:05 10° NE 05:45:26 16° E 05:47:46 10° SE visible
02 Oct 8.1 06:23:31 10° NNE 06:26:59 42° E 06:30:23 10° S visible
03 Oct 9.4 05:57:52 10° NE 06:00:47 23° E 06:03:39 10° SSE visible
04 Oct 10.1 05:32:51 10° ENE 05:34:29 13° E 05:36:05 10° ESE visible
06 Oct 8.6 06:12:47 10° NNE 06:16:03 32° E 06:19:15 10° SSE visible
